Time,TemperatureF,DewpointF,PressureIn,WindDirection,WindDirectionDegrees,WindSpeedMPH,WindSpeedGustMPH,Humidity,HourlyPrecipIn,Conditions,Clouds,dailyrainin,SoftwareType,DateUTC
2013-01-24 07:16:00,7.9,0.1,30.60,NW,325,2.0,3.0,70,0.00,,,0.00,Wunderground v.1.15,2013-01-24 13:16:00,
2013-01-24 07:17:00,7.9,0.1,30.60,NW,324,2.0,3.0,70,0.00,,,0.00,Wunderground v.1.15,2013-01-24 13:17:00,
2013-01-24 07:18:00,7.9,0.1,30.60,North,355,3.0,3.0,70,0.00,,,0.00,Wunderground v.1.15,2013-01-24 13:18:00,
2013-01-24 07:20:00,7.9,0.1,30.60,North,350,3.0,7.0,70,0.00,,,0.00,Wunderground v.1.15,2013-01-24 13:20:00,
2013-01-24 07:26:00,7.9,0.1,30.60,NNW,342,3.0,4.0,70,0.00,,,0.00,Wunderground v.1.15,2013-01-24 13:26:00,
2013-01-24 07:32:00,7.9,0.1,30.60,NNW,348,3.0,4.0,70,0.00,,,0.00,Wunderground v.1.15,2013-01-24 13:32:00,
2013-01-24 07:37:00,8.0,0.2,30.60,NW,313,4.0,6.0,70,0.00,,,0.00,Wunderground v.1.15,2013-01-24 13:37:00,
2013-01-24 07:44:00,8.2,0.4,30.60,North,5,5.0,7.0,70,0.00,,,0.00,Wunderground v.1.15,2013-01-24 13:44:00,
2013-01-24 07:49:00,8.4,0.6,30.60,North,355,6.0,8.0,70,0.00,,,0.00,Wunderground v.1.15,2013-01-24 13:49:00,
2013-01-24 07:55:00,8.5,0.7,30.60,NNW,348,6.0,8.0,70,0.00,,,0.00,Wunderground v.1.15,2013-01-24 13:55:00,
2013-01-24 08:01:00,8.7,0.6,30.60,NNW,329,6.0,7.0,69,0.00,,,0.00,Wunderground v.1.15,2013-01-24 14:01:00,
2013-01-24 08:06:00,8.8,0.7,30.61,North,355,7.0,9.0,69,0.00,,,0.00,Wunderground v.1.15,2013-01-24 14:06:00,
2013-01-24 08:12:00,9.0,0.9,30.61,NNW,335,7.0,10.0,69,0.00,,,0.00,Wunderground v.1.15,2013-01-24 14:12:00,
2013-01-24 08:19:00,9.3,1.2,30.61,North,11,6.0,10.0,69,0.00,,,0.00,Wunderground v.1.15,2013-01-24 14:19:00,
2013-01-24 08:24:00,9.5,1.1,30.62,North,360,5.0,6.0,68,0.00,,,0.00,Wunderground v.1.15,2013-01-24 14:24:00,
2013-01-24 08:29:00,9.8,1.7,30.62,North,355,4.0,6.0,69,0.00,,,0.00,Wunderground v.1.15,2013-01-24 14:29:00,
2013-01-24 08:35:00,10.1,1.9,30.63,North,355,4.0,7.0,69,0.00,,,0.00,Wunderground v.1.15,2013-01-24 14:35:00,
2013-01-24 08:40:00,10.4,2.2,30.64,NNW,346,4.0,5.0,69,0.00,,,0.00,Wunderground v.1.15,2013-01-24 14:40:00,
2013-01-24 08:46:00,10.7,2.2,30.65,North,355,5.0,7.0,68,0.00,,,0.00,Wunderground v.1.15,2013-01-24 14:46:00,
2013-01-24 08:52:00,11.1,2.9,30.65,NNW,345,5.0,8.0,69,0.00,,,0.00,Wunderground v.1.15,2013-01-24 14:52:00,
2013-01-24 08:57:00,11.4,2.9,30.65,North,355,5.0,8.0,68,0.00,,,0.00,Wunderground v.1.15,2013-01-24 14:57:00,
2013-01-24 09:04:00,11.8,3.3,30.65,NNE,22,6.0,9.0,68,0.00,,,0.00,Wunderground v.1.15,2013-01-24 15:04:00,
2013-01-24 09:10:00,12.2,3.3,30.65,NNW,346,7.0,7.0,67,0.00,,,0.00,Wunderground v.1.15,2013-01-24 15:10:00,
2013-01-24 09:15:00,12.2,3.0,30.66,North,360,6.0,7.0,66,0.00,,,0.00,Wunderground v.1.15,2013-01-24 15:15:00,
2013-01-24 09:20:00,12.5,3.6,30.66,North,355,5.0,6.0,67,0.00,,,0.00,Wunderground v.1.15,2013-01-24 15:20:00,
2013-01-24 09:26:00,12.7,3.8,30.66,NNW,348,5.0,6.0,67,0.00,,,0.00,Wunderground v.1.15,2013-01-24 15:26:00,
2013-01-24 09:31:00,12.8,3.9,30.66,NNE,20,4.0,6.0,67,0.00,,,0.00,Wunderground v.1.15,2013-01-24 15:31:00,
2013-01-24 09:37:00,13.1,4.2,30.66,NNE,17,5.0,6.0,67,0.00,,,0.00,Wunderground v.1.15,2013-01-24 15:37:00,
2013-01-24 09:43:00,13.4,4.1,30.67,NNE,32,6.0,8.0,66,0.00,,,0.00,Wunderground v.1.15,2013-01-24 15:43:00,
2013-01-24 09:48:00,13.3,4.1,30.67,NE,49,7.0,8.0,66,0.00,,,0.00,Wunderground v.1.15,2013-01-24 15:48:00,
2013-01-24 09:54:00,13.5,4.2,30.67,NE,44,6.0,8.0,66,0.00,,,0.00,Wunderground v.1.15,2013-01-24 15:54:00,
2013-01-24 09:59:00,13.6,4.3,30.67,NE,51,7.0,9.0,66,0.00,,,0.00,Wunderground v.1.15,2013-01-24 15:59:00,
2013-01-24 10:04:00,13.8,4.9,30.67,NE,38,6.0,7.0,67,0.00,,,0.00,Wunderground v.1.15,2013-01-24 16:04:00,
2013-01-24 10:10:00,14.2,4.9,30.67,NE,36,6.0,6.0,66,0.00,,,0.00,Wunderground v.1.15,2013-01-24 16:10:00,
2013-01-24 10:16:00,14.5,5.2,30.67,NNE,32,6.0,7.0,66,0.00,,,0.00,Wunderground v.1.15,2013-01-24 16:16:00,
2013-01-24 10:21:00,14.9,5.6,30.67,NNE,28,6.0,6.0,66,0.00,,,0.00,Wunderground v.1.15,2013-01-24 16:21:00,
2013-01-24 10:27:00,15.2,5.5,30.66,NNE,24,6.0,9.0,65,0.00,,,0.00,Wunderground v.1.15,2013-01-24 16:27:00,
2013-01-24 10:32:00,15.5,5.8,30.66,North,5,7.0,8.0,65,0.00,,,0.00,Wunderground v.1.15,2013-01-24 16:32:00,
2013-01-24 10:39:00,16.1,6.7,30.66,NNE,13,7.0,8.0,66,0.00,,,0.00,Wunderground v.1.15,2013-01-24 16:39:00,
2013-01-24 10:44:00,16.4,7.0,30.66,NE,39,8.0,10.0,66,0.00,,,0.00,Wunderground v.1.15,2013-01-24 16:44:00,
2013-01-24 10:50:00,16.9,7.5,30.66,NNE,33,8.0,8.0,66,0.00,,,0.00,Wunderground v.1.15,2013-01-24 16:50:00,
2013-01-24 10:55:00,17.1,7.7,30.66,NE,36,7.0,8.0,66,0.00,,,0.00,Wunderground v.1.15,2013-01-24 16:55:00,
2013-01-24 11:00:00,17.4,8.0,30.66,NE,46,7.0,7.0,66,0.00,,,0.00,Wunderground v.1.15,2013-01-24 17:00:00,
2013-01-24 11:06:00,17.6,7.5,30.65,NE,36,6.0,9.0,64,0.00,,,0.00,Wunderground v.1.15,2013-01-24 17:06:00,
2013-01-24 11:11:00,17.7,7.9,30.65,NE,41,6.0,7.0,65,0.00,,,0.00,Wunderground v.1.15,2013-01-24 17:11:00,
2013-01-24 11:16:00,18.1,8.0,30.65,NE,34,6.0,7.0,64,0.00,,,0.00,Wunderground v.1.15,2013-01-24 17:16:00,
2013-01-24 11:22:00,18.3,8.5,30.65,NE,38,6.0,10.0,65,0.00,,,0.00,Wunderground v.1.15,2013-01-24 17:22:00,
2013-01-24 11:27:00,18.7,8.2,30.65,ENE,63,7.0,10.0,63,0.00,,,0.00,Wunderground v.1.15,2013-01-24 17:27:00,
2013-01-24 11:33:00,19.2,9.0,30.65,NE,46,7.0,8.0,64,0.00,,,0.00,Wunderground v.1.15,2013-01-24 17:33:00,
2013-01-24 11:39:00,19.4,8.5,30.64,NE,45,7.0,8.0,62,0.00,,,0.00,Wunderground v.1.15,2013-01-24 17:39:00,
2013-01-24 11:44:00,19.6,8.7,30.64,NE,48,6.0,9.0,62,0.00,,,0.00,Wunderground v.1.15,2013-01-24 17:44:00,
2013-01-24 11:49:00,19.7,8.8,30.64,East,90,6.0,9.0,62,0.00,,,0.00,Wunderground v.1.15,2013-01-24 17:49:00,
2013-01-24 11:55:00,19.9,9.0,30.63,SE,126,4.0,6.0,62,0.00,,,0.00,Wunderground v.1.15,2013-01-24 17:55:00,
2013-01-24 12:01:00,20.4,9.1,30.63,NE,56,5.0,5.0,61,0.00,,,0.00,Wunderground v.1.15,2013-01-24 18:01:00,
2013-01-24 12:07:00,20.6,8.5,30.62,ESE,117,5.0,8.0,59,0.00,,,0.00,Wunderground v.1.15,2013-01-24 18:07:00,
2013-01-24 12:13:00,21.1,9.0,30.62,East,95,6.0,8.0,59,0.00,,,0.00,Wunderground v.1.15,2013-01-24 18:13:00,
2013-01-24 12:19:00,21.3,8.8,30.61,East,87,6.0,8.0,58,0.00,,,0.00,Wunderground v.1.15,2013-01-24 18:19:00,
2013-01-24 12:24:00,21.3,8.4,30.61,ESE,111,6.0,10.0,57,0.00,,,0.00,Wunderground v.1.15,2013-01-24 18:24:00,
2013-01-24 12:30:00,21.5,8.2,30.61,SE,133,7.0,7.0,56,0.00,,,0.00,Wunderground v.1.15,2013-01-24 18:30:00,
2013-01-24 12:36:00,21.5,7.4,30.61,ESE,118,7.0,8.0,54,0.00,,,0.00,Wunderground v.1.15,2013-01-24 18:36:00,
2013-01-24 12:42:00,21.8,7.7,30.60,ESE,109,7.0,8.0,54,0.00,,,0.00,Wunderground v.1.15,2013-01-24 18:42:00,
2013-01-24 12:47:00,21.8,6.8,30.60,ESE,108,8.0,10.0,52,0.00,,,0.00,Wunderground v.1.15,2013-01-24 18:47:00,
2013-01-24 12:54:00,22.2,7.2,30.59,East,90,8.0,13.0,52,0.00,,,0.00,Wunderground v.1.15,2013-01-24 18:54:00,
2013-01-24 12:59:00,22.6,6.3,30.59,ESE,108,9.0,13.0,49,0.00,,,0.00,Wunderground v.1.15,2013-01-24 18:59:00,
2013-01-24 13:05:00,22.6,5.8,30.59,East,97,10.0,10.0,48,0.00,,,0.00,Wunderground v.1.15,2013-01-24 19:05:00,
2013-01-24 13:11:00,22.8,5.6,30.59,East,86,10.0,11.0,47,0.00,,,0.00,Wunderground v.1.15,2013-01-24 19:11:00,
2013-01-24 13:17:00,22.6,5.8,30.59,East,95,11.0,13.0,48,0.00,,,0.00,Wunderground v.1.15,2013-01-24 19:17:00,
2013-01-24 13:22:00,22.5,6.2,30.59,ESE,117,10.0,10.0,49,0.00,,,0.00,Wunderground v.1.15,2013-01-24 19:22:00,
2013-01-24 13:28:00,22.9,6.1,30.60,ESE,109,9.0,12.0,48,0.00,,,0.00,Wunderground v.1.15,2013-01-24 19:28:00,
2013-01-24 13:34:00,23.3,6.0,30.60,East,100,9.0,13.0,47,0.00,,,0.00,Wunderground v.1.15,2013-01-24 19:34:00,
2013-01-24 13:39:00,23.1,6.3,30.59,SE,125,9.0,13.0,48,0.00,,,0.00,Wunderground v.1.15,2013-01-24 19:39:00,
2013-01-24 13:45:00,23.1,5.4,30.58,East,91,8.0,11.0,46,0.00,,,0.00,Wunderground v.1.15,2013-01-24 19:45:00,
2013-01-24 13:51:00,23.4,5.6,30.58,SSE,148,10.0,10.0,46,0.00,,,0.00,Wunderground v.1.15,2013-01-24 19:51:00,
2013-01-24 13:56:00,23.4,5.6,30.58,SE,135,9.0,11.0,46,0.00,,,0.00,Wunderground v.1.15,2013-01-24 19:56:00,
2013-01-24 14:02:00,23.3,6.0,30.58,ESE,119,8.0,13.0,47,0.00,,,0.00,Wunderground v.1.15,2013-01-24 20:02:00,
2013-01-24 14:09:00,23.5,6.2,30.58,East,93,8.0,15.0,47,0.00,,,0.00,Wunderground v.1.15,2013-01-24 20:09:00,
2013-01-24 14:14:00,23.4,5.2,30.58,ESE,116,9.0,12.0,45,0.00,,,0.00,Wunderground v.1.15,2013-01-24 20:14:00,
2013-01-24 14:19:00,23.5,6.2,30.57,ESE,121,9.0,12.0,47,0.00,,,0.00,Wunderground v.1.15,2013-01-24 20:19:00,
2013-01-24 14:25:00,23.6,5.3,30.58,ESE,122,8.0,10.0,45,0.00,,,0.00,Wunderground v.1.15,2013-01-24 20:25:00,
2013-01-24 14:31:00,23.4,5.2,30.58,SE,124,8.0,8.0,45,0.00,,,0.00,Wunderground v.1.15,2013-01-24 20:31:00,
2013-01-24 14:36:00,23.6,4.8,30.58,ESE,115,8.0,11.0,44,0.00,,,0.00,Wunderground v.1.15,2013-01-24 20:36:00,
2013-01-24 14:42:00,23.5,4.8,30.57,ESE,105,9.0,9.0,44,0.00,,,0.00,Wunderground v.1.15,2013-01-24 20:42:00,
2013-01-24 14:47:00,23.6,4.8,30.57,ESE,120,9.0,11.0,44,0.00,,,0.00,Wunderground v.1.15,2013-01-24 20:47:00,
2013-01-24 14:53:00,23.9,5.6,30.57,SE,137,8.0,10.0,45,0.00,,,0.00,Wunderground v.1.15,2013-01-24 20:53:00,
2013-01-24 14:58:00,23.8,5.0,30.57,SE,129,9.0,11.0,44,0.00,,,0.00,Wunderground v.1.15,2013-01-24 20:58:00,
2013-01-24 15:04:00,23.8,4.5,30.56,SE,144,10.0,12.0,43,0.00,,,0.00,Wunderground v.1.15,2013-01-24 21:04:00,
2013-01-24 15:10:00,23.8,4.5,30.55,SE,126,10.0,13.0,43,0.00,,,0.00,Wunderground v.1.15,2013-01-24 21:10:00,
2013-01-24 15:16:00,23.9,4.6,30.56,SE,128,10.0,13.0,43,0.00,,,0.00,Wunderground v.1.15,2013-01-24 21:16:00,
2013-01-24 15:21:00,23.9,4.1,30.56,ESE,113,10.0,10.0,42,0.00,,,0.00,Wunderground v.1.15,2013-01-24 21:21:00,
2013-01-24 15:27:00,23.6,3.8,30.56,ESE,110,9.0,10.0,42,0.00,,,0.00,Wunderground v.1.15,2013-01-24 21:27:00,
2013-01-24 15:33:00,23.7,4.4,30.56,ESE,114,9.0,9.0,43,0.00,,,0.00,Wunderground v.1.15,2013-01-24 21:33:00,
2013-01-24 15:39:00,23.7,3.9,30.56,ESE,121,9.0,11.0,42,0.00,,,0.00,Wunderground v.1.15,2013-01-24 21:39:00,
2013-01-24 15:44:00,23.8,4.0,30.56,SE,127,9.0,11.0,42,0.00,,,0.00,Wunderground v.1.15,2013-01-24 21:44:00,
2013-01-24 15:50:00,23.6,3.8,30.56,ESE,123,9.0,13.0,42,0.00,,,0.00,Wunderground v.1.15,2013-01-24 21:50:00,
2013-01-24 15:56:00,23.6,3.8,30.56,ESE,110,10.0,13.0,42,0.00,,,0.00,Wunderground v.1.15,2013-01-24 21:56:00,
2013-01-24 16:01:00,23.5,3.7,30.55,ESE,121,9.0,10.0,42,0.00,,,0.00,Wunderground v.1.15,2013-01-24 22:01:00,
2013-01-24 16:07:00,23.5,4.2,30.55,ESE,116,9.0,10.0,43,0.00,,,0.00,Wunderground v.1.15,2013-01-24 22:07:00,
2013-01-24 16:13:00,23.3,4.1,30.55,ESE,109,9.0,9.0,43,0.00,,,0.00,Wunderground v.1.15,2013-01-24 22:13:00,
2013-01-24 16:18:00,23.3,4.6,30.55,ESE,118,9.0,10.0,44,0.00,,,0.00,Wunderground v.1.15,2013-01-24 22:18:00,
2013-01-24 16:24:00,23.2,4.5,30.54,ESE,113,9.0,10.0,44,0.00,,,0.00,Wunderground v.1.15,2013-01-24 22:24:00,
2013-01-24 16:29:00,23.1,3.9,30.54,ESE,118,9.0,11.0,43,0.00,,,0.00,Wunderground v.1.15,2013-01-24 22:29:00,
2013-01-24 16:35:00,23.1,4.4,30.53,ESE,119,9.0,10.0,44,0.00,,,0.00,Wunderground v.1.15,2013-01-24 22:35:00,
2013-01-24 16:40:00,23.1,4.4,30.54,ESE,110,9.0,10.0,44,0.00,,,0.00,Wunderground v.1.15,2013-01-24 22:40:00,
2013-01-24 16:46:00,23.0,4.3,30.54,ESE,117,8.0,10.0,44,0.00,,,0.00,Wunderground v.1.15,2013-01-24 22:46:00,